TimePDT,TemperatureF,Dew PointF,Humidity,Sea Level PressureIn,VisibilityMPH,Wind Direction,Wind SpeedMPH,Gust SpeedMPH,PrecipitationIn,Events,Conditions,WindDirDegrees,DateUTC
12:56 AM,35.1,14.0,42,30.35,10.0,SE,4.6,-,N/A,,Clear,140,2013-10-06 07:56:00
1:56 AM,28.9,12.9,51,30.35,10.0,ESE,5.8,-,N/A,,Clear,120,2013-10-06 08:56:00
2:56 AM,30.0,12.0,47,30.33,10.0,SE,6.9,-,N/A,,Clear,130,2013-10-06 09:56:00
3:56 AM,28.9,12.0,49,30.32,10.0,SE,5.8,-,N/A,,Clear,130,2013-10-06 10:56:00
4:56 AM,24.1,12.0,60,30.31,10.0,SE,5.8,-,N/A,,Clear,140,2013-10-06 11:56:00
5:56 AM,27.0,12.0,53,30.31,10.0,SE,4.6,-,N/A,,Clear,130,2013-10-06 12:56:00
6:56 AM,26.1,10.9,53,30.33,10.0,SE,5.8,-,N/A,,Clear,130,2013-10-06 13:56:00
7:56 AM,33.1,12.0,42,30.31,10.0,Calm,Calm,-,N/A,,Clear,0,2013-10-06 14:56:00
8:56 AM,48.9,16.0,27,30.30,10.0,ENE,6.9,-,N/A,,Clear,60,2013-10-06 15:56:00
9:56 AM,55.0,17.1,23,30.28,10.0,NE,9.2,-,N/A,,Clear,40,2013-10-06 16:56:00
10:56 AM,62.1,16.0,17,30.26,10.0,NE,5.8,-,N/A,,Clear,40,2013-10-06 17:56:00
11:56 AM,66.9,15.1,14,30.23,10.0,Variable,4.6,-,N/A,,Clear,0,2013-10-06 18:56:00
12:56 PM,71.1,14.0,11,30.20,10.0,Calm,Calm,-,N/A,,Clear,0,2013-10-06 19:56:00
1:56 PM,73.0,14.0,11,30.17,10.0,WSW,4.6,-,N/A,,Clear,240,2013-10-06 20:56:00
2:56 PM,73.9,14.0,10,30.14,10.0,SSE,4.6,-,N/A,,Clear,160,2013-10-06 21:56:00
3:56 PM,75.0,12.9,9,30.11,10.0,ESE,3.5,-,N/A,,Clear,110,2013-10-06 22:56:00
4:56 PM,75.9,12.0,9,30.10,10.0,Variable,3.5,-,N/A,,Clear,0,2013-10-06 23:56:00
5:56 PM,69.1,14.0,12,30.10,10.0,NNE,4.6,-,N/A,,Clear,20,2013-10-07 00:56:00
6:56 PM,63.0,16.0,16,30.11,10.0,ENE,5.8,-,N/A,,Clear,70,2013-10-07 01:56:00
7:56 PM,55.9,16.0,21,30.10,10.0,Calm,Calm,-,N/A,,Clear,0,2013-10-07 02:56:00
8:56 PM,46.9,15.1,28,30.09,10.0,SE,6.9,-,N/A,,Clear,140,2013-10-07 03:56:00
9:56 PM,44.1,12.9,28,30.08,10.0,ESE,4.6,-,N/A,,Clear,110,2013-10-07 04:56:00
10:56 PM,39.9,7.0,26,30.07,10.0,SE,8.1,-,0.01,,Clear,140,2013-10-07 05:56:00
11:56 PM,39.0,7.0,27,30.06,10.0,SSE,8.1,-,N/A,,Clear,150,2013-10-07 06:56:00